Regional Weather Roundup
Issued by NWS Sioux Falls, SD

Home | Current Version | Previous Version | Graphics & Text | Print | Product List | Glossary On
Versions: 1 2 3 4 5 6 7 8 9 10 11 12 13 14 15 16 17 18 19 20 21 22 23 24 25 26 27 28 29 30 31 32 33 34 35 36 37 38 39 40 41 42 43 44 45 46 47 48 49 50
000
ASUS43 KFSD 101410
RWRFSD

WEATHER ROUNDUP FOR SE SOUTH DAKOTA/SW MINNESOTA/NW IOWA
NATIONAL WEATHER SERVICE SIOUX FALLS SD
800 AM CST SUN DEC 10 2017

NOTE: "FAIR" INDICATES FEW OR NO CLOUDS BELOW 12,000 FEET WITH NO
SIGNIFICANT WEATHER AND OR OBSTRUCTIONS TO VISIBILITY.


SDZ038>040-050-052>070-101500-
SOUTHEAST SOUTH DAKOTA

CITY           SKY/WX    TMP DP  RH WIND       PRES   REMARKS
BROOKINGS      CLEAR     26  23  88 NW8       30.01R WCI  18
CHAMBERLAIN    CLEAR     40  22  50 NW12      30.09S
HURON          CLOUDY    23  21  92 W7        30.07R WCI  15
MADISON        FAIR      27  27 100 NW10      30.02S WCI  17
MITCHELL       CLOUDY    33  25  72 NW10      30.08R WCI  25
SIOUX FALLS    CLOUDY    28  24  85 NW7       30.04R WCI  21
WINNER         FAIR      41  17  38 W12       30.13S
YANKTON        CLEAR     37  24  59 W15       30.08R
$$

MNZ071-072-080-081-089-090-097-098-101500-
SOUTHWEST MINNESOTA

CITY           SKY/WX    TMP DP  RH WIND       PRES   REMARKS
FAIRMONT       CLOUDY    30  24  78 NW17      29.95R WCI  18
JACKSON        CLOUDY    32  25  74 MISG      29.96R
LUVERNE        CLOUDY    27  21  80 NW6       30.02R WCI  20
MARSHALL       CLOUDY    32  25  75 NW16      30.00R WCI  21
MONTEVIDEO     PTCLDY    27  21  80 N10G16    30.00R WCI  17
PIPESTONE      CLOUDY    28  25  86 NW12G17   29.99R WCI  18
REDWOOD FALLS  CLEAR     29  20  69 NW13G18   29.97R WCI  19
TRACY          CLOUDY    32  26  80 NW10      29.99R WCI  23
WINDOM           N/A     30  18  59 NW16      29.97R WCI  19
WORTHINGTON    CLOUDY    31  25  78 NW13      29.99R WCI  21
$$

IAZ001>003-012>014-020>022-031-032-NEZ013-014-SDZ071-101500-
NORTHWEST IOWA

CITY           SKY/WX    TMP DP  RH WIND       PRES   REMARKS
CHEROKEE       CLEAR     31  26  83 NW7       30.02R WCI  24
DENISON        CLEAR     32  25  74 NW8       30.05R WCI  25
ESTHERVILLE    CLOUDY    30  24  78 NW17      29.95R WCI  18
LE MARS        CLEAR     30  27  86 W8        30.04S WCI  23
ORANGE CITY    CLOUDY    30  28  93 NW7       30.02R WCI  23
SHELDON        MOCLDY    30  27  86 NW13      29.99R WCI  20
SIOUX CITY     CLEAR     33  25  72 NW13      30.05S WCI  24
SPENCER        CLOUDY    31  25  78 W14       29.98S WCI  21
STORM LAKE     CLOUDY    27  25  93 W14       29.99S WCI  15
$$

ABBREVIATIONS USED IN REMARKS
   TC - TEMPERATURE IN CELSIUS
  WCI - WIND CHILL INDEX
   HX - HEAT INDEX
  VSB - VISIBILITY





USA.gov is the U.S. government's official web portal to all federal, state and local government web resources and services.